AirNav   Everest Fuels
 
 1552 users online  

KSLG Smith Field Airport
Siloam Springs, Arkansas, USA

GOING TO SILOAM SPRINGS?


FAA INFORMATION EFFECTIVE 15 JULY 2021

Location

FAA Identifier: SLG
Lat/Long: 36-11-30.7000N 094-29-24.0000W
36-11.511667N 094-29.400000W
36.1918611,-94.4900000
(estimated)
Elevation: 1191.4 ft. / 363.1 m (surveyed)
Variation: 04E (1995)
From city: 3 miles NE of SILOAM SPRINGS, AR
Time zone: UTC -5 (UTC -6 during Standard Time)
Zip code: 72761

Airport Operations

Airport use: Open to the public
Activation date: 03/1963
Control tower: no
ARTCC: MEMPHIS CENTER
FSS: JONESBORO FLIGHT SERVICE STATION
NOTAMs facility: SLG (NOTAM-D service available)
Attendance: MON-FRI 0800-1700
FOR SVC AFT HRS CALL 479-524-4103.
Wind indicator: lighted
Segmented circle: yes
Lights: ACTVT REIL RWY 18 & 36; PAPI RWY 18 & 36; MIRL RWY 18/36 - CTAF.
Beacon: white-green (lighted land airport)
Operates sunset to sunrise.

Airport Communications

CTAF/UNICOM: 122.8
WX AWOS-3PT: 118.375 (479-524-9893)
RAZORBACK APPROACH: 121.0
RAZORBACK DEPARTURE: 121.0
WX ASOS at XNA (10 nm NE): 119.425 (479-203-0109)
WX AWOS-3PT at VBT (16 nm NE): 134.975 (479-273-9198)
WX AWOS-3 at ASG (18 nm E): 124.675 (479-750-2967)
WX ASOS at FYV (19 nm SE): 119.575 (479-442-5237)
  • APCH/DEP SVC PRVDD BY MEMPHIS ARTCC ON FREQS 126.1/269.0 (FAYETTEVILLE RCAG) WHEN RAZORBACK APCH CTL CLSD.

Nearby radio navigation aids

VOR radial/distance  VOR name  Freq  Var
RZCr256/18.1RAZORBACK VORTAC116.4004E
EOSr177/39.1NEOSHO VOR/DME117.3007E

 
NDB name  Hdg/Dist  Freq  Var  ID
SILOAM SPRINGSat field28404ESLG ... .-.. --.

Airport Services

Fuel available: 100LL JET-A
100LL:SELF-SERVE 100LL AVBL 24 HR WITH CREDIT CARD.
Parking: tiedowns
Airframe service: MAJOR
Powerplant service: MAJOR
Bottled oxygen: NONE
Bulk oxygen: NONE

Runway Information

Runway 18/36

Dimensions: 4997 x 75 ft. / 1523 x 23 m
Surface: asphalt, in good condition
Weight bearing capacity: 
Single wheel: 24.0
Runway edge lights: medium intensity
RUNWAY 18  RUNWAY 36
Latitude: 36-11.921167N36-11.101000N
Longitude: 094-29.352167W094-29.446500W
Elevation: 1191.3 ft.1175.4 ft.
Traffic pattern: leftleft
Runway heading: 181 magnetic, 185 true001 magnetic, 005 true
Markings: nonprecision, in fair conditionnonprecision, in fair condition
Visual slope indicator: 2-light PAPI on left (3.00 degrees glide path)2-light PAPI on left (3.00 degrees glide path)
UNUSBL BYD 7 DEGS RIGHT OF CNTRLN.
Runway end identifier lights: yesyes
Touchdown point: yes, no lightsyes, no lights

Airport Ownership and Management from official FAA records

Ownership: Publicly-owned
Owner: CITY OF SILOAM SPRINGS
PO BOX 80
SILOAM SPRINGS, AR 72761
Phone 479-524-5136
Manager: JAMES HARRIS
20610 SMITH FIELD DRIVE
SILOAM SPRINGS, AR 72761
Phone 479-524-4103

Airport Operational Statistics

Aircraft based on the field: 18
Single engine airplanes: 15
Multi engine airplanes: 2
Jet airplanes: 1
    
Aircraft operations: avg 66/day *
50% transient general aviation
50% local general aviation
<1% military
* for 12-month period ending 28 February 2021

Additional Remarks

FOR CD CTC RAZORBACK APCH 479-649-2416, WHEN APCH CLSD CTC MEMPHIS ARTCC AT 901-368-8453/8449.

Instrument Procedures

NOTE: All procedures below are presented as PDF files. If you need a reader for these files, you should download the free Adobe Reader.

NOT FOR NAVIGATION. Please procure official charts for flight.
FAA instrument procedures published for use from 15 July 2021 at 0901Z to 12 August 2021 at 0900z.

 
IAPs - Instrument Approach Procedures
RNAV (GPS) RWY 18 **CHANGED**   download (261KB)
RNAV (GPS) RWY 36 **CHANGED**   download (230KB)
NOTE: Special Alternate Minimums apply   download (57KB)
NOTE: Special Take-Off Minimums/Departure Procedures apply   download (131KB)

Other nearby airports with instrument procedures:

5M5 - Crystal Lake Airport (9 nm N)
KXNA - Northwest Arkansas National Airport (10 nm NE)
KVBT - Bentonville Municipal Airport/Louise M Thaden Field (16 nm NE)
KASG - Springdale Municipal Airport (18 nm E)
KFYV - Drake Field Airport (19 nm SE)
 
Loc | Ops | Rwys | IFR | FBO | Links
Com | Nav | Svcs | Stats | Notes
Area around KSLG (Smith Field Airport)
 
Road maps at: MapQuest Bing Google
 
Aerial photo
WARNING: Photo may not be current or correct
Aerial photo of KSLG (Smith Field Airport)
Photo courtesy of the Arkansas Department of Aeronautics
Taken in the Spring of 2007

Do you have a better or more recent aerial photo of Smith Field Airport that you would like to share? If so, please send us your photo.

 
Sectional chart

 
Airport distance calculator
Flying to Smith Field Airport? Find the distance to fly.

From to KSLG

Sunrise and sunset
Times for 02-Aug-2021
 Local
(UTC-5)
 Zulu
(UTC)
Morning civil twilight05:5810:58
Sunrise06:2711:27
Sunset20:2201:22
Evening civil twilight20:5001:50

Current date and time
Zulu (UTC)  02-Aug-2021 16:40:00
Local (UTC-5)  02-Aug-2021 11:40:00
 
METAR
KSLG 021556Z AUTO 00000KT 9SM CLR 26/21 A3013 RMK AO2 SLP194 T02560211 TSNO
KXNA 
11nm NE 
021553Z 36006KT 7SM SCT055 SCT080 27/21 A3013 RMK AO2 SLP188 T02720206
KVBT 
16nm NE 
021556Z AUTO VRB03KT 9SM CLR 26/21 A3015 RMK AO2 SLP199 T02610211 TSNO
KASG 
18nm E 
021548Z 06003KT 6SM HZ BKN060 BKN070 25/22 A3013
KFYV 
19nm SE 
021553Z 36003KT 6SM HZ FEW050 26/21 A3012 RMK AO2 SLP185 T02610206
TAF
KXNA 
11nm NE 
021120Z 0212/0312 36005KT P6SM SKC FM021500 04007KT 6SM HZ BKN100 FM030100 VRB02KT P6SM SCT250
KFYV 
19nm SE 
021353Z 0214/0312 00000KT 4SM BR OVC050 FM021500 05005KT 5SM HZ SCT050 SCT100 FM030100 VRB02KT P6SM SCT250
NOTAMs
Click for the latest NOTAMs
NOTAMs are issued by the DoD/FAA and will open in a separate window not controlled by AirNav.

 

 
 

FBO, Fuel Providers, and Aircraft Ground Support

  
 Business Name 
 
 Contact 
 
 Services / Description 
 
Fuel Prices
 
Comments
  
City of Siloam Springs (FBO) 479-524-4103
[web site]
[email]
Aviation fuel, Aircraft parking (ramp or tiedown), Passenger terminal and lounge, Pilots lounge / snooze room, Public telephone, Restrooms

More info about City of Siloam Springs (FBO)
independent
100LL Jet A
FS $4.55 $4.15 
SS $4.05 --- 
 Updated 28-Jul-2021
 
   2 read write
FS=Full service
SS=Self service
Update Fuel Prices
 

Would you like to see your business listed on this page?

 If your business provides an interesting product or service to pilots, flight crews, aircraft, or users of the Smith Field Airport, you should consider listing it here.  To start the listing process, click on the button below
 
Add a business
 

Other Pages about Smith Field Airport

www.siloamsprings.com/...
 
Update a link
 
Copyright © AirNav, LLC. All rights reserved. Privacy Policy  Contact